Regional Weather Roundup
Issued by NWS Newport/Morehead, NC

Home | Current Version | Previous Version | Text Only | Print | Product List | Glossary On
Versions: 1 2 3 4 5 6 7 8 9 10 11 12 13 14 15 16 17 18 19 20 21 22 23 24 25 26 27 28 29 30 31 32 33 34 35 36 37 38 39 40 41 42 43 44 45 46 47 48 49 50
000
ASUS42 KMHX 241025
RWRMHX
WEATHER ROUNDUP FOR EASTERN NORTH CAROLINA
NATIONAL WEATHER SERVICE NEWPORT/MOREHEAD CITY NC
500 AM EST TUE JAN 24 2017

NOTE: "FAIR" INDICATES FEW OR NO CLOUDS BELOW 12,000 FEET
WITH NO SIGNIFICANT WEATHER AND/OR OBSTRUCTIONS TO VISIBILITY

NCZ015>017-031-032-045>047-102-103-241100-
NORTH COAST

CITY           SKY/WX    TMP DP  RH WIND       PRES   REMARKS
EDENTON        CLOUDY    43  40  88 NW13      29.46R
ELIZABETH CITY CLOUDY    41  39  93 NW16      29.43R
KITTY HAWK     NOT AVBL
MANTEO         CLOUDY    42  40  92 NW17G25   29.41S

$$

NCZ045>047-081-094-103-104-241100-
CENTRAL COAST

CITY           SKY/WX    TMP DP  RH WIND       PRES   REMARKS
FRISCO         CLOUDY    47  43  86 NW16G25   29.41R

$$

NCZ095-097-098-100-101-241100-
SOUTHERN COAST

CITY           SKY/WX    TMP DP  RH WIND       PRES   REMARKS
BEAUFORT       MOCLDY    46  40  79 NW21G30   29.48R
CEDAR ISLAND   NOT AVBL
JACKSONVILLE   CLOUDY    45  41  86 NW14      29.51R
PINEY ISLAND   CLOUDY   N/A N/A N/A NW21G29   29.47
WILMINGTON     PTCLDY    46  42  86 W13       29.53R


$$

NCZ011>013-027>030-043-044-078>080-089-090>093-098-241100-
COASTAL PLAIN

CITY           SKY/WX    TMP DP  RH WIND       PRES   REMARKS
AHOSKIE        DRIZZLE   38  37  96 N3        29.50R
CLINTON        MOCLDY    43  39  86 NW6       29.54S
ELIZABETHTOWN  CLEAR     45  39  80 NW7       29.55S
GOLDSBORO      CLOUDY    45  41  87 NW10      29.51R
GREENVILLE     CLOUDY    41  36  81 N8G17     29.54R
HAVELOCK       CLOUDY    44  39  82 NW16G25   29.50R
KENANSVILLE    CLOUDY    45  37  76 NW12      29.53R
KINSTON        CLOUDY    43  38  81 NW8G16    29.53R
NEW BERN       CLOUDY    43  38  82 NW13      29.50R
RICHLANDS      CLOUDY    44  40  85 NW6       29.52R
ROCKY MOUNT    CLOUDY    42  37  82 NW13G22   29.53R
WASHINGTON     CLOUDY    41  37  83 NW13G20     N/A
WHITEVILLE     CLEAR     46  41  85 W3        29.56R

$$

AMZ130-135-150-152-154-156-158-170-250-252-270-ANZ085-086-088-633-658-670-241100-
MARINE OBSERVATIONS

STATION/POSITION TIME  TEMP    WIND        PRES    WAVE   SWELL
                       AIR SEA DIR/SP/G            HT/PER HT/PER
                 (UTC) (F)     (DEG/KT/KT) (MB)    (FT/S) (FT/S)
CHESAPEAKE LIGHT NOT AVBL
64 E VA BEACH    0950   45 52  310/ 25/ 29  992.2   12/12   8/12
DUCK             1000   42 46  300/ 16/ 19  995.2
2 E DUCK         1000      47                N/A     8/13   5/13
OREGON INLET     1000   43 50  300/ 18/ 22  995.3
13E OREGON INLT  NOT AVBL
HATTERAS CG      1000   46 57  310/ 23/ 27  995.7
DIAMOND BUOY     0950   49 75  310/ 23/ 29  995.1    9/12   8/12
CAPE LOOKOUT     1000   46     300/ 19/ 26  997.6
BEAUFORT LAB     1000   45 52  310/ 10/ 17  997.3
30 SE NEW RVR IN 0908   51 67  310/ 21/ 29  997.6
30 SE NEW RVR IN 1013      67                N/A     7/ 5   2/13
27 SE WRIGHTSVLE 1008   52 68  280/ 19/ 29  997.0
5 SE WRIGHTSVLE  1008   49 56  300/ 17/ 27  999.6
225 S CAPE HAT   0950   67 71  300/ 23/ 29  996.5   14/11  11/11
41 SE CHARLESTON 0950   59 69  290/ 21/ 27 1001.1    7/ 8   3/11

$$




USA.gov is the U.S. government's official web portal to all federal, state and local government web resources and services.